Regional Weather Roundup
Issued by NWS

Home | Current Version | Previous Version | Graphics & Text | Print | Product List | Glossary On
Versions: 1 2 3 4 5 6 7 8 9 10 11 12 13 14 15 16 17 18 19 20 21 22 23 24 25 26 27
000
ASUS45 KCYS 221310
RWRWY

WYOMING REGIONAL WEATHER ROUNDUP
NATIONAL WEATHER SERVICE CHEYENNE WY
700 AM MDT FRI JUL 22 2016

NOTE:  "FAIR" INDICATES FEW OR NO CLOUDS BELOW 12,000 FEET
WITH NO SIGNIFICANT WEATHER AND/OR OBSTRUCTIONS TO VISIBILITY.

WYZ001-221400-
YELLOWSTONE NATIONAL PARK

CITY           SKY/WX    TMP DP  RH WIND       PRES   REMARKS
LK YELLOWSTONE   N/A     50  41  71 CALM      30.42S
W YELLOWSTONE  NOT AVBL

$$
WYZ002>013-054>058-071-098>099-221400-
NORTHERN WYOMING

CITY           SKY/WX    TMP DP  RH WIND       PRES   REMARKS
JACKSON        PTCLDY    54  45  71 CALM      30.32S
CODY           FAIR      70  36  28 N5        30.14S
GREYBULL       FAIR      69  39  33 CALM      30.07R HAZE
WORLAND        FAIR      66  40  38 S5        30.09R
SHERIDAN       FAIR      62  47  57 S3        30.05S
BUFFALO        FAIR      77  40  26 S7        30.12F
GILLETTE       FAIR      71  43  36 CALM      30.10R
HULETT         FAIR      73  43  33 CALM      30.11F
NEWCASTLE      FAIR      81  52  36 SE8       30.13S

$$
WYZ014>020-022>026-101>103-221400-
CENTRAL WYOMING

CITY           SKY/WX    TMP DP  RH WIND       PRES   REMARKS
BIG PINEY      FAIR      54  41  61 CALM      30.39R
PINEDALE       FAIR      52  43  71 CALM      30.39S
DUBOIS         FAIR      59  37  44 CALM      30.36R HAZE
LANDER         FAIR      67  40  37 E3        30.20R
RIVERTON       FAIR      67  47  48 N3        30.21R
CASPER         FAIR      64  45  49 W8        30.22S
DOUGLAS          N/A    N/A N/A N/A MISG      30.20R

$$
WYZ021-027>030-104>119-221400-
SOUTHERN WYOMING

CITY           SKY/WX    TMP DP  RH WIND       PRES   REMARKS
EVANSTON       FAIR      67  42  40 SW7       30.35S
KEMMERER         N/A     61  39  44 CALM      30.38S
FORT BRIDGER   PTSUNNY   77  33  19 S20G35    30.39R
ROCK SPRINGS   FAIR      61  44  53 S3        30.36R
DIXON          FAIR      57  48  72 E5        30.40S
RAWLINS        FAIR      56  43  61 CALM      30.37S
SARATOGA       FAIR      61  48  63 S14       30.40S
LARAMIE        FAIR      57  46  66 S7        30.40R
CHEYENNE       PTSUNNY   67  47  48 W10       30.29R
TORRINGTON     FAIR      71  59  65 CALM      30.13S
PINE BLUFFS    FAIR      64  54  68 W5        30.22R

$$




USA.gov is the U.S. government's official web portal to all federal, state and local government web resources and services.